User: anonymous   Login
Location: NJAA Observatory
(40.6819°N, 74.8979°W)
Time: 08:41:15
(UTC-04:00)
Language:

Iridium 56 - Orbit

View from above orbital plane
View from above orbital plane
View from above satellite
View from above satellite

Ground track
Ground track

The orbit data is extracted from the following two-line orbital elements,

1 25170U 98010B   15180.38253873  .00000212  00000-0  68745-4 0  9996
2 25170 086.3983 290.9018 0002474 099.3992 322.1166 14.34222329908731
Epoch (UTC): 29 June 2015 09:10:51
Eccentricity: 0.0002474
inclination: 86.3983°
perigee height: 776 km
apogee height: 779 km
right ascension of ascending node: 290.9018°
argument of perigee: 99.3992°
revolutions per day: 14.34222329
mean anomaly at epoch: 322.1166°
orbit number at epoch: 90873

The dashed part of the orbit path shows where the satellite is in the earth's shadow,  

DLR